• Join FlightAware (Why Join?)
  • Login
  • US Flag 
05:17AM EST


 

Airport Tracker/Info


-or-


 

Live Flight TrackerFlight Track Log ✈ EJA831 ✈ 13-Jun-2013 ✈ KICT - KCOS

Flight Track Log - Related Links

Times and Time Zones

All times are in EDT time to prevent confusion due to time zone crossing. See the EJA831 flight status page for this flight to view local times or setup timezone preferences in your user account.

Time Position Orientation Groundspeed Altitude Reporting Facility
EDT Latitude Longitude Course Direction KTS MPH feet Rate Location/Type
05:40PM 37.6364 -97.4283 204° Southwest 173 199 2,100  Level Kansas City Center
05:40PM 37.5964 -97.4506 204° Southwest 203 234 4,200 2,100 Climbing Kansas City Center
05:41PM 37.5850 -97.4636 222° Southwest 232 267 4,500 2,220 Climbing Kansas City Center
05:42PM 37.6031 -97.5453 286° West 265 305 7,200 2,340 Climbing Kansas City Center
05:43PM 37.6514 -97.6239 308° West 277 319 9,400 1,980 Climbing Kansas City Center
05:44PM 37.7044 -97.7131 307° West 303 349 11,400 1,980 Climbing Kansas City Center
05:45PM 37.7547 -97.8089 304° West 325 374 13,500 2,220 Climbing Kansas City Center
05:46PM 37.7669 -97.9194 278° West 317 365 16,100 2,640 Climbing Kansas City Center
05:47PM 37.7769 -98.0514 276° West 316 364 19,000 2,640 Climbing Kansas City Center
05:48PM 37.7842 -98.1614 275° West 311 358 21,500 2,160 Climbing Kansas City Center
05:49PM 37.7908 -98.2731 274° West 316 364 23,500 1,860 Climbing Kansas City Center
05:50PM 37.7983 -98.3892 275° West 328 377 25,400 1,620 Climbing Kansas City Center
05:51PM 37.8050 -98.5089 274° West 337 388 26,900 1,200 Climbing Kansas City Center
05:52PM 37.8128 -98.6350 275° West 352 405 27,900 480 Climbing Kansas City Center
05:53PM 37.8203 -98.7692 274° West 371 427 28,000  Climbing Kansas City Center
05:54PM 37.8286 -98.9119 274° West 398 458 28,000  Level Kansas City Center
05:55PM 37.8397 -99.0872 275° West 414 476 28,000 240 Level Kansas City Center
05:56PM 37.8475 -99.2342 274° West 418 481 28,600 720 Climbing Kansas City Center
05:57PM 37.8556 -99.3769 274° West 410 472 29,500 660 Climbing Kansas City Center
05:58PM 37.8628 -99.5364 273° West 404 465 30,000 240 Climbing Kansas City Center
05:59PM 37.8708 -99.6761 274° West 412 474 30,000  Level Kansas City Center
06:00PM 37.8772 -99.8172 273° West 419 482 30,000  Level Kansas City Center
06:01PM 37.8856 -99.9803 274° West 419 482 30,000  Level Kansas City Center
06:02PM 37.8928 -100.1203 274° West 416 479 30,000  Level Kansas City Center
06:03PM 37.8997 -100.2825 273° West 416 479 30,000  Level Kansas City Center
06:04PM 37.9067 -100.4197 274° West 412 474 30,000  Level Kansas City Center
06:05PM 37.9136 -100.5825 273° West 414 476 30,000  Level Kansas City Center
06:07PM 37.9225 -100.7200 275° West 414 476 30,000  Level Kansas City Center
06:08PM 37.9678 -100.8728 291° West 420 483 30,000  Level Kansas City Center
06:09PM 38.0169 -101.0244 292° West 420 483 30,000  Level Kansas City Center
06:10PM 38.0594 -101.1567 292° West 424 488 30,000  Level Kansas City Center
06:11PM 38.1089 -101.3097 292° West 422 486 30,000  Level Kansas City Center
06:12PM 38.1497 -101.4414 292° West 423 487 30,000  Level Denver Center
06:13PM 38.1994 -101.5953 292° West 423 487 30,000  Level Denver Center
06:14PM 38.2786 -101.6978 315° West 433 498 30,000  Level Denver Center
06:15PM 38.3936 -101.7847 329° Northwest 431 496 30,000  Level Denver Center
06:16PM 38.4911 -101.8636 328° Northwest 434 499 30,000  Level Denver Center
06:17PM 38.6050 -101.9539 328° Northwest 431 496 30,000  Level Denver Center
06:18PM 38.7081 -102.0200 333° Northwest 432 497 30,000  Level Denver Center
06:19PM 38.8364 -102.0756 341° North 438 504 30,000  Level Denver Center
06:20PM 38.9542 -102.0900 355° North 446 513 30,000  Level Denver Center
06:21PM 39.0725 -102.0594 11° North 451 519 30,000  Level Denver Center
06:22PM 39.2033 -102.0911 349° North 434 499 30,000  Level Denver Center
06:23PM 39.2697 -102.2019 308° West 410 472 30,000  Level Denver Center
06:24PM 39.3250 -102.3453 297° West 399 459 30,000  Level Denver Center
06:25PM 39.3717 -102.4819 294° West 404 465 30,000  Level Denver Center
06:26PM 39.3672 -102.6222 268° West 393 452 30,000  Level Denver Center
06:27PM 39.3319 -102.7572 251° West 396 456 30,000  Level Denver Center
06:28PM 39.2975 -102.8892 251° West 389 448 30,000  Level Denver Center
06:29PM 39.2628 -103.0217 251° West 390 449 30,000  Level Denver Center
06:30PM 39.2222 -103.1772 251° West 381 438 30,000 -360 Level Denver Center
06:31PM 39.1889 -103.3006 251° West 369 425 29,300 -840 Descending Denver Center
06:32PM 39.1547 -103.4278 251° West 375 432 28,300 -1,260 Descending Denver Center
06:33PM 39.1203 -103.5547 251° West 377 434 26,800 -1,740 Descending Denver Center
06:34PM 39.0856 -103.6864 251° West 386 444 24,800 -2,040 Descending Denver Center
06:35PM 39.0503 -103.8150 251° West 382 440 22,700 -2,280 Descending Denver Center
06:36PM 39.0111 -103.9592 251° West 362 417 20,200 -2,160 Descending Denver Center
06:38PM 38.9789 -104.0750 250° West 350 403 18,300 -1,860 Descending Denver Center
06:39PM 38.9481 -104.1889 251° West 343 395 16,400 -1,980 Descending Denver Center
06:40PM 38.9169 -104.3011 250° West 345 397 14,300 -2,280 Descending Denver Center
06:41PM 38.8925 -104.4331 257° West 347 399 11,800 -2,100 Descending Denver Center
06:42PM 38.8989 -104.5494 274° West 351 404 10,000 -1,320 Descending Denver Center
06:43PM 38.9031 -104.6447 273° West 277 319 9,100 -1,020 Descending Denver Center
06:44PM 38.8944 -104.7144 261° West 208 239 8,000 -1,080 Descending Denver Center
06:46PM 38.8000 -104.7000 252° West  Level FlightAware Approximate
06:53PM 38.8058 -104.7008 252° West  Level Estimated
06:54PM 38.8000 -104.7000 252° West  Level FlightAware Approximate